This is the latest recevied weather packets stored in our database for station/object W4FXD. If no packets are shown the sender has not sent any weather packets the latest 10 day(s).
| Time | Temp. | Humidity | Pressure | Rain* | Wind** | Luminosity | Snow |
|---|---|---|---|---|---|---|---|
| 1777598982 | 13.89° C | 55% | 1014.5 hPa | 0 mm | - | 0 W/m² | - |
| 1777598680 | 13.89° C | 56% | 1014.7 hPa | 0 mm | - | 0 W/m² | - |
| 1777598375 | 13.89° C | 56% | 1014.6 hPa | 0 mm | - | 0 W/m² | - |
| 1777598074 | 13.89° C | 56% | 1014.4 hPa | 0 mm | - | 0 W/m² | - |
| 1777597773 | 13.89° C | 56% | 1014.6 hPa | 0 mm | - | 0 W/m² | - |
| 1777597469 | 14.44° C | 57% | 1014.6 hPa | 0 mm | - | 0 W/m² | - |
| 1777597164 | 13.89° C | 55% | 1014.3 hPa | 0 mm | - | 0 W/m² | - |
| 1777596861 | 13.89° C | 57% | 1014.3 hPa | 0 mm | - | 0 W/m² | - |
| 1777596556 | 13.89° C | 60% | 1014.2 hPa | 0 mm | - | 0 W/m² | - |
| 1777596254 | 13.89° C | 56% | 1014.3 hPa | 0 mm | - | 0 W/m² | - |
| 1777595951 | 13.89° C | 57% | 1014.4 hPa | 0 mm | - | 0 W/m² | - |
| 1777595651 | 14.44° C | 57% | 1014.3 hPa | 0 mm | - | 0 W/m² | - |
| 1777595346 | 14.44° C | 56% | 1014.3 hPa | 0 mm | - | 0 W/m² | - |
| 1777595043 | 14.44° C | 55% | 1014.1 hPa | 0 mm | - | 0 W/m² | - |
| 1777594740 | 14.44° C | 55% | 1014.1 hPa | 0 mm | - | 1 W/m² | - |
| 1777594436 | 15° C | 55% | 1014.2 hPa | 0 mm | - | 3 W/m² | - |
| 1777594131 | 15° C | 53% | 1014.1 hPa | 0 mm | - | 6 W/m² | - |
| 1777593828 | 15° C | 52% | 1014.1 hPa | 0 mm | - | 9 W/m² | - |
| 1777593525 | 15.56° C | 55% | 1013.9 hPa | 0 mm | - | 11 W/m² | - |
| 1777593219 | 15.56° C | 55% | 1014.1 hPa | 0 mm | - | 14 W/m² | - |
| 1777592918 | 15.56° C | 51% | 1013.6 hPa | 0 mm | - | 16 W/m² | - |
| 1777592614 | 16.11° C | 52% | 1013.8 hPa | 0 mm | - | 22 W/m² | - |
| 1777592310 | 16.11° C | 52% | 1013.9 hPa | 0 mm | - | 33 W/m² | - |
| 1777592006 | 16.11° C | 49% | 1013.9 hPa | 0 mm | - | 30 W/m² | - |
| 1777591703 | 16.11° C | 49% | 1014 hPa | 0 mm | - | 35 W/m² | - |
* Rain latest hour (hover to see other rain measurements)
** Current wind speed in m/s (hover to see current wind gust speed)